Temp
9 9 9 9 10 10 9 8 10 10 9 9 6 6 12 13 13 13 13 14 14 14 13 13 12 13 13 13 14 14 13 12 9 13 13 13 13 14 13 12 15 11 11 13
9 9 9 9 9 9 9 8 9 9 9 8 7 12 13 13 13 14 14 14 14 14 14 13 12 12 13 13 13 13 13 12 9 13 13 13 13 14 14 11 10 12 12 14
8 9 10 10 10 9 9 8 9 9 7 8 11 13 13 13 13 14 14 14 14 14 14 12 12 12 12 12 12 12 13 11 12 12 13 12 13 13 13 12 9 12 11 13
7 9 10 10 10 10 10 7 8 9 10 11 12 13 14 13 13 13 14 14 14 14 13 13 11 11 12 12 13 13 12 12 10 13 13 13 13 13 12 12 13 13 15 12
7 8 10 10 10 11 11 9 10 7 9 10 13 11 13 13 13 13 13 13 11 12 12 13 12 11 11 12 12 13 10 10 10 9 12 12 13 12 11 12 13 13 12 13
7 8 9 10 11 11 9 8 9 8 9 10 11 11 13 13 12 12 11 12 11 11 11 12 11 10 9 11 11 11 11 9 8 12 11 11 12 10 11 11 11 12 12 12
7 7 9 9 9 10 10 8 7 8 11 10 11 13 13 12 12 12 11 10 12 11 11 11 10 9 8 8 8 8 10 8 7 6 10 11 14 12 11 12 12 11 13 11
7 7 8 9 9 9 10 8 7 7 10 9 12 12 11 11 10 11 10 9 9 8 10 8 9 8 11 10 8 8 8 8 7 8 8 11 13 12 11 11 12 10 11 10
8 7 7 8 9 9 9 8 8 6 8 10 11 11 11 9 9 9 9 9 9 9 8 9 10 10 10 10 10 8 8 7 9 7 12 13 14 13 12 13 11 10 11 9
9 8 7 7 8 9 9 8 8 7 7 7 9 10 10 9 8 8 8 9 9 8 7 9 9 9 9 10 9 8 8 7 8 8 9 10 10 12 13 14 14 10 9 8
9 8 8 7 7 8 9 8 8 7 6 6 7 8 10 9 8 8 8 8 7 6 8 8 8 8 8 9 8 7 8 6 6 6 9 11 10 12 12 10 9 9 8 9
8 9 8 8 8 7 8 8 8 8 6 6 6 6 7 7 8 7 6 9 7 7 7 6 6 9 6 8 10 8 9 9 9 8 10 10 9 12 10 8 8 9 7 7
8 9 8 8 7 7 8 8 8 7 4 5 5 6 6 6 7 7 8 6 7 7 6 6 7 9 7 9 8 10 10 8 9 11 11 10 9 9 8 8 8 7 6 5
8 8 8 8 7 7 7 8 7 7 5 6 6 6 6 6 6 7 7 7 7 6 5 7 7 8 7 8 8 8 9 8 9 8 9 10 9 7 7 7 5 6 5 5
8 8 8 8 7 7 7 7 7 7 7 7 6 5 5 5 6 6 7 7 5 5 6 6 7 5 6 4 5 5 6 8 9 10 9 9 9 6 6 5 5 5 5 5
8 8 8 7 7 7 7 5 6 6 7 4 5 3 4 5 6 5 5 5 4 4 5 5 5 5 6 5 6 7 6 7 7 10 8 7 5 5 6 6 5 5 5 5
7 8 8 7 7 7 6 6 7 6 7 5 5 4 3 4 4 3 3 4 3 4 5 4 5 5 5 5 6 8 7 7 7 5 6 7 7 6 5 5 5 6 6 6
7 7 7 7 7 6 6 7 6 6 6 4 2 3 4 4 3 4 2 3 3 3 4 3 4 4 3 6 7 7 7 6 6 6 6 7 4 4 4 4 4 4 4 4
7 7 7 5 6 5 6 5 5 5 5 2 2 3 5 3 3 3 3 2 3 2 4 3 4 4 5 7 7 7 6 6 6 4 3 3 3 3 3 3 3 3 4 3
7 6 6 5 5 5 5 4 3 1 2 2 3 1 3 3 3 4 3 2 3 1 4 2 4 5 5 6 6 6 6 5 3 4 3 2 3 3 3 4 3 3 3 3
6 5 4 3 3 4 4 4 4 2 4 2 2 3 3 2 4 5 4 2 2 2 2 4 4 4 5 4 5 3 4 3 3 4 3 3 3 2 3 3 4 3 3 2
5 4 3 3 3 3 5 5 3 3 4 1 3 3 2 1 2 3 2 3 4 5 3 4 4 3 4 4 4 2 1 2 2 3 2 3 3 4 3 3 3 3 4 4
4 2 1 2 2 4 5 4 5 3 0 1 2 2 1 1 2 2 3 4 4 2 4 3 3 3 3 2 1 1 1 2 3 3 4 4 4 4 4 3 4 3 3 4
3 3 4 4 3 4 3 2 4 1 0 2 1 1 2 1 2 2 1 3 2 4 4 3 0 1 1 0 1 1 1 1 -1 2 4 4 3 3 4 3 3 2 2 3
3 2 5 4 3 -1 -3 -4 -1 -2 2 2 1 1 1 2 2 2 2 3 4 3 3 2 -1 0 0 0 1 1 1 1 2 3 2 3 3 2 2 3 3 3 2 2
1 2 4 3 0 2 -0 -4 -0 -1 3 0 1 2 1 2 1 3 3 1 1 2 0 -1 -0 0 0 0 0 1 2 2 2 2 2 2 2 1 2 2 2 2 2 1
2 2 2 2 -1 1 -1 -0 1 3 4 2 1 1 4 1 0 1 1 1 2 -0 -2 -2 1 1 1 0 1 2 2 1 1 1 2 2 2 1 0 -3 3 2 2 1
Height
804 801 797 793 789 787 787 786 793 787 788 795 803 811 789 786 787 786 786 785 783 786 788 790 794 795 795 793 790 792 795 805 829 809 807 807 808 806 812 825 817 830 831 822
804 800 797 793 790 787 787 788 788 787 788 807 811 791 788 788 787 786 784 785 784 784 788 794 795 797 795 794 792 794 795 808 833 813 812 808 809 805 805 817 828 823 831 818
803 800 797 793 789 787 787 789 797 790 789 793 792 789 789 790 788 787 784 784 783 786 788 791 798 798 797 794 796 796 798 807 810 815 806 808 809 807 806 811 841 821 821 813
802 800 796 793 789 786 786 789 795 792 796 791 788 786 785 789 789 787 786 787 787 787 791 792 799 799 798 797 796 797 800 808 815 805 804 803 802 804 809 810 806 811 802 811
802 799 796 793 788 785 785 790 791 793 794 790 786 792 787 787 790 790 789 790 794 790 793 793 797 799 801 798 799 799 806 816 816 824 807 808 806 805 807 808 804 803 807 804
801 799 796 793 789 786 786 789 789 791 794 792 793 792 787 787 789 791 792 792 795 799 798 796 797 799 801 798 801 805 808 821 831 810 817 813 808 804 804 801 798 797 806 797
800 799 796 794 791 789 789 790 790 793 793 793 790 787 786 788 789 791 795 795 793 799 797 798 800 804 806 807 811 809 812 820 834 844 820 824 784 788 790 791 790 792 789 793
800 798 796 795 793 791 790 790 790 793 796 796 788 787 790 792 795 795 796 799 800 799 800 811 814 818 806 810 815 814 813 821 835 836 834 805 785 788 794 792 785 787 790 796
799 797 796 795 794 792 791 791 790 791 796 795 791 790 790 798 800 801 801 800 799 799 808 812 809 811 809 811 812 816 815 821 823 837 811 798 782 783 783 783 794 785 786 797
796 796 795 795 794 792 791 792 791 791 795 794 792 794 793 794 800 804 803 801 801 803 815 812 816 815 809 809 814 820 822 827 828 831 826 803 786 781 781 787 784 783 787 792
794 794 794 793 794 792 791 792 792 793 796 794 793 793 791 794 796 800 802 804 805 812 810 813 812 814 812 811 811 818 818 831 833 834 821 806 783 784 787 785 786 786 790 792
791 792 792 792 792 792 791 791 792 792 794 795 794 793 793 793 792 795 800 798 800 801 808 814 815 807 817 811 801 807 808 801 804 806 795 780 782 776 779 782 786 787 789 790
788 789 790 791 791 791 791 790 791 792 794 796 795 795 794 793 793 792 796 799 796 798 799 806 807 802 807 803 806 795 791 794 794 788 779 779 780 780 781 782 783 785 788 791
784 786 787 788 790 790 790 790 789 790 794 799 797 795 795 794 793 793 793 793 794 796 799 802 806 803 801 802 799 799 790 791 787 788 779 778 777 780 780 782 784 786 789 791
781 783 785 786 788 789 789 789 788 789 793 795 796 795 796 795 794 794 794 794 795 799 802 805 803 805 804 809 808 803 787 781 783 778 772 773 773 775 779 783 786 789 791 794
776 778 781 784 786 788 788 789 789 789 789 794 801 799 796 796 795 795 795 795 797 799 800 803 802 800 802 808 806 776 775 773 772 770 772 774 776 777 780 784 786 788 791 792
772 774 778 781 784 786 786 788 788 788 788 793 798 799 798 797 797 798 798 798 799 800 801 803 802 801 801 804 799 770 769 769 770 771 772 776 775 777 779 781 785 788 791 793
767 771 774 777 781 785 786 785 786 788 788 791 806 802 800 797 799 801 801 802 801 802 803 804 802 801 803 793 770 770 769 771 773 772 772 772 775 778 781 783 787 790 793 795
762 768 772 775 777 779 781 783 785 787 792 797 800 800 794 797 798 800 803 804 808 807 803 803 802 799 792 766 766 766 770 770 771 775 776 777 780 783 785 786 788 791 794 794
758 764 768 772 774 776 780 786 787 789 790 792 792 791 793 794 798 800 804 806 807 816 802 803 800 788 769 766 766 767 767 770 773 777 782 784 785 786 787 788 790 792 793 794
754 757 765 771 776 778 778 783 786 790 788 787 782 780 786 791 792 794 797 806 807 814 806 801 794 785 768 766 766 766 766 768 771 773 775 779 782 786 787 789 789 790 790 791
753 754 763 771 774 775 774 776 784 781 776 775 775 778 781 788 788 792 802 802 801 796 799 798 788 773 766 766 767 768 768 770 774 775 777 780 781 783 786 788 789 789 788 787
755 757 760 761 769 764 758 762 763 770 767 766 769 776 780 787 787 794 796 795 796 801 798 789 775 765 766 768 770 771 771 773 776 779 780 781 783 783 784 785 785 785 785 783
753 752 750 746 752 744 738 739 737 744 747 753 763 774 776 781 786 790 800 795 798 794 790 782 770 763 765 768 770 771 773 773 775 778 780 781 782 783 784 783 782 782 781 779
748 746 733 733 728 733 738 739 740 745 743 748 762 770 773 779 784 784 791 792 784 782 774 763 759 758 761 765 768 770 772 773 775 775 777 779 780 781 782 780 779 777 776 774
743 739 728 725 733 729 735 742 739 737 740 750 755 764 773 773 777 775 776 788 785 761 757 751 752 755 758 760 763 765 768 770 772 774 776 776 776 777 777 775 773 772 770 767
732 725 720 721 729 724 731 733 732 731 732 741 751 760 752 765 774 772 767 762 744 743 745 745 746 750 754 758 761 765 766 767 769 770 771 771 772 772 772 770 766 765 763 761
Wind_Speed
17 19 20 18 11 12 3 1 2 4 6 3 2 1 3 2 3 2 1 1 2 2 2 3 2 3 1 5 1 2 1 4 3 1 1 1 2 2 3 4 3 1 3 4
15 18 19 17 14 10 4 1 2 3 1 3 2 2 2 1 2 2 1 1 1 1 1 3 2 2 3 2 2 2 3 2 3 4 3 2 3 4 3 4 3 4 4 4
13 16 18 18 15 8 2 2 2 3 3 1 5 2 2 1 2 1 1 2 2 2 2 4 3 1 3 5 3 2 2 2 4 5 3 2 4 4 4 5 3 4 5 5
12 14 17 19 17 8 2 2 2 3 1 2 2 2 1 2 1 2 2 2 2 3 2 2 3 1 2 4 3 2 2 3 1 2 2 0 2 3 7 6 4 5 3 8
10 12 15 19 18 5 3 2 2 2 1 2 3 4 1 2 1 3 2 3 4 2 4 2 4 5 3 3 1 1 2 2 2 2 3 3 3 5 7 5 3 3 3 4
8 10 13 17 18 5 3 2 1 3 2 1 3 2 1 2 4 1 3 1 3 5 2 2 2 3 4 3 5 3 3 5 3 2 3 4 6 9 10 6 5 7 8 8
7 9 10 13 16 12 4 3 2 3 1 1 2 2 2 2 1 4 2 4 3 1 1 3 3 7 7 8 6 2 4 4 2 2 2 1 4 1 5 7 6 8 3 6
6 8 8 10 12 10 7 3 1 2 1 0 1 3 3 3 4 3 2 3 1 2 4 3 4 4 3 4 5 6 3 4 3 3 3 6 1 3 5 6 7 9 8 6
5 8 7 7 9 10 4 9 4 2 4 2 2 1 3 3 2 2 2 1 2 4 3 2 3 4 3 2 2 5 4 5 4 2 2 5 2 1 3 3 5 6 8 8
7 5 6 7 6 8 5 4 7 1 2 2 1 2 3 4 3 2 1 2 1 3 2 2 3 3 3 3 6 4 2 2 4 2 3 8 5 4 3 3 5 4 8 8
10 6 6 7 3 5 5 3 7 3 1 3 2 3 2 1 2 4 3 3 2 2 2 3 3 3 4 2 4 6 6 6 4 2 3 6 6 3 6 4 2 4 4 4
11 8 5 7 3 3 4 2 3 4 3 1 2 2 1 1 2 4 1 2 3 4 3 1 2 2 1 3 2 2 3 6 4 8 5 3 5 1 2 4 5 5 6 4
14 10 7 5 5 1 2 1 2 1 2 2 2 1 1 0 0 1 4 2 2 1 2 3 2 2 3 3 5 2 4 4 3 1 1 5 5 1 3 4 4 4 4 5
15 13 9 7 4 3 2 0 0 3 3 1 2 0 1 3 2 2 0 3 3 5 2 2 1 2 2 3 2 3 4 5 4 5 5 1 4 5 6 5 6 5 5 4
15 15 12 9 6 4 3 2 2 2 3 2 2 1 2 4 2 1 2 2 2 2 2 2 3 1 1 1 2 4 5 6 5 5 5 3 4 7 6 7 5 6 5 5
18 16 14 12 11 7 1 2 3 4 4 3 1 2 4 5 2 4 3 2 2 2 3 2 2 1 3 2 3 6 5 3 4 2 2 2 3 7 5 6 7 5 6 6
21 18 17 16 14 11 3 3 3 7 4 2 2 2 2 1 3 3 2 3 1 2 1 2 1 1 2 2 4 4 5 5 3 5 6 4 3 5 7 8 8 9 7 7
23 20 18 17 16 9 5 9 6 5 4 3 2 2 2 3 1 1 2 1 2 2 0 1 2 1 1 4 6 5 2 4 4 2 3 1 6 7 6 9 8 5 5 3
23 19 18 14 6 6 4 7 8 7 2 3 2 4 3 2 1 2 1 2 1 1 2 2 2 2 5 6 5 3 7 6 6 3 5 6 6 7 6 6 6 5 2 1
20 19 6 3 7 10 16 3 2 3 2 1 3 2 3 4 2 1 2 1 2 1 3 2 2 4 6 5 4 4 2 5 8 5 4 5 4 6 5 4 3 3 2 3
7 4 2 8 19 4 1 2 2 3 3 4 3 4 4 2 3 3 2 2 1 0 3 3 2 4 3 3 1 3 4 7 4 4 6 6 7 6 5 3 3 4 6 6
3 12 11 8 2 1 4 4 2 4 6 4 5 3 3 2 2 3 1 3 1 5 3 2 3 4 3 2 2 4 5 9 7 11 9 11 10 8 5 3 4 6 9 13
6 3 4 4 3 5 8 10 4 4 5 5 4 4 4 2 1 3 3 4 3 2 2 4 5 2 2 5 5 5 8 12 11 7 8 7 5 4 3 5 8 10 13 17
3 4 6 6 5 6 6 5 6 4 4 10 5 4 3 2 3 3 4 3 3 3 4 6 3 6 6 6 5 6 6 7 6 6 6 4 3 5 6 9 12 13 15 18
3 3 5 8 4 1 1 3 4 1 8 8 4 3 3 2 3 3 3 4 5 5 5 3 4 7 9 8 6 7 7 6 4 3 2 5 6 8 12 13 14 16 18 21
2 5 4 1 2 2 2 1 3 4 9 3 2 4 3 3 4 5 8 7 7 5 4 3 6 9 9 8 7 7 10 8 6 5 6 7 8 9 11 16 19 20 19 21
5 5 3 3 2 2 3 4 4 10 9 4 4 6 8 4 3 4 5 6 4 4 3 3 8 12 11 8 7 9 8 7 7 7 8 11 11 11 14 12 23 21 24 25
Wind_Direction
7 7 6 6 2 9 359 14 53 170 170 54 30 111 168 185 195 222 274 27 77 169 26 59 90 131 101 327 278 31 73 105 105 153 261 181 226 236 141 116 220 92 140 267
5 8 9 6 5 356 339 117 185 164 240 103 342 277 34 33 154 195 191 110 66 6 85 92 73 68 356 353 59 42 31 41 79 2 356 2 231 210 153 113 77 198 135 250
4 7 8 6 3 351 2 79 47 337 53 111 132 162 158 59 351 298 285 146 113 91 55 42 122 68 360 4 83 49 61 74 154 189 212 139 190 199 178 128 115 175 221 168
359 6 7 6 1 350 138 38 240 190 319 347 87 98 153 131 10 337 353 51 78 178 120 101 111 89 2 10 31 58 89 127 89 346 11 60 241 197 189 182 180 161 232 188
352 4 10 7 7 13 84 114 117 12 174 302 73 4 72 143 131 36 347 97 29 11 114 191 174 136 191 204 92 98 22 151 104 299 334 353 290 252 213 216 222 246 187 265
348 5 12 12 15 29 79 45 73 105 309 46 92 209 184 136 128 54 65 32 99 60 93 51 58 78 86 152 147 147 103 130 106 243 358 336 293 218 193 195 200 164 191 215
344 358 12 17 19 32 65 46 105 85 258 120 203 188 116 127 69 157 32 38 101 139 29 114 51 53 67 60 40 41 132 107 96 192 16 294 256 167 205 193 200 204 147 174
320 345 5 18 21 28 49 36 115 114 117 261 17 110 112 101 47 64 77 26 315 315 55 67 43 354 19 20 32 15 53 115 89 131 213 289 230 206 154 168 263 190 166 147
274 325 352 6 17 22 37 34 42 106 119 260 302 162 162 160 132 32 20 342 345 70 84 87 154 208 219 235 339 7 66 71 117 138 209 236 229 215 155 133 289 178 152 161
241 291 330 338 1 16 38 40 19 75 110 272 34 181 183 131 109 123 137 187 85 50 98 138 177 238 160 175 178 171 104 33 166 171 247 282 237 190 156 124 243 158 149 157
233 248 297 312 335 4 31 77 27 43 127 290 358 346 168 88 124 151 192 77 321 65 144 160 211 174 221 148 176 178 171 153 194 137 209 289 165 91 168 207 79 124 111 139
232 231 262 303 291 345 16 101 3 4 111 241 3 46 60 321 173 133 161 181 163 194 102 202 113 208 133 176 245 139 221 189 183 188 214 267 212 224 154 145 148 174 152 162
229 229 230 270 296 274 351 98 41 56 77 342 31 326 331 223 308 179 131 278 174 145 161 158 180 241 136 191 240 215 240 169 228 357 346 224 212 181 163 168 151 133 124 143
222 225 224 224 266 273 288 171 98 112 110 117 278 56 332 324 297 245 136 129 105 107 101 111 142 217 163 227 249 209 207 141 195 261 267 57 238 207 173 137 130 126 127 138
220 218 221 216 200 243 274 280 229 182 137 205 277 329 2 341 319 240 200 132 103 96 77 96 226 217 111 350 12 254 191 193 173 226 220 172 243 187 161 143 153 151 135 120
218 214 216 212 200 202 220 14 209 177 162 99 318 326 6 23 81 83 65 65 79 99 144 208 262 237 127 162 238 254 220 215 195 245 157 123 83 113 129 133 149 150 144 147
215 211 209 204 199 195 170 184 157 169 139 99 345 332 321 2 39 31 32 38 56 105 171 218 208 259 145 178 234 251 285 209 168 132 119 71 190 172 152 135 144 140 135 138
208 206 206 198 188 193 226 216 178 162 110 78 119 272 329 171 115 50 353 65 32 23 240 341 211 333 109 252 232 248 154 125 139 58 4 159 114 109 106 118 128 124 139 138
207 195 194 165 178 162 186 165 179 191 151 157 152 164 224 163 126 113 48 62 61 329 214 237 134 216 228 237 208 226 190 187 180 85 90 101 113 128 129 120 130 129 145 165
197 162 163 166 170 145 130 110 74 31 346 62 207 146 195 139 144 148 99 24 203 198 245 110 212 257 270 256 241 244 231 171 139 112 122 117 122 141 136 126 119 151 202 270
196 132 99 120 138 146 101 156 185 165 215 198 233 180 138 221 132 165 186 177 174 211 263 170 245 264 251 333 336 314 222 155 121 114 118 132 138 145 141 154 197 237 269 267
197 124 119 129 168 172 161 183 152 204 220 183 151 166 134 159 132 109 235 160 175 238 167 218 250 252 224 154 80 52 109 118 113 128 123 133 140 154 170 214 259 278 295 301
136 82 140 151 183 185 191 180 191 203 177 177 164 132 129 105 86 87 128 174 218 112 214 236 230 214 172 147 123 98 106 119 120 124 135 152 164 177 215 265 283 293 296 302
173 188 194 201 189 229 194 179 169 199 142 142 130 118 136 151 119 145 123 188 130 224 231 234 240 199 169 159 154 132 149 143 145 163 175 195 245 283 290 283 289 295 294 304
209 205 227 205 216 140 215 145 102 195 142 139 108 79 108 136 125 170 111 162 227 219 230 223 205 172 159 161 163 154 160 168 173 174 221 262 269 272 285 296 302 300 301 301
220 227 256 218 98 166 164 210 134 178 147 89 68 130 122 183 151 159 204 158 216 231 210 205 154 162 168 167 168 176 177 179 194 219 243 262 267 272 286 297 295 299 302 299
225 230 213 177 296 196 163 177 176 160 153 170 146 147 190 116 154 209 191 207 217 200 192 155 167 170 171 168 175 187 192 204 222 240 251 261 279 288 286 281 301 309 307 304